M I D A S
Marine Information and Data Acquisition System
Tripno 1672 of the Zeeleeuw from 2009-04-06 13:38:23 to 2009-04-07 13:11:26
Back to CruiseResearch ActivitiesStationsMapUnderway DataData graphs

EquipmentUnitsComments
TimeDGPSUTC
LatitudeDGPSDM.mWGS84
LongitudeDGPSDM.mWGS84
SpeedMeteo Stationm/sRelative wind speed
DirectionMeteo StationdegRelative wind direction
TemperatureMeteo Stationdeg CelciusAir temperature
PressureMeteo StationPaAtmospheric pressure
HumidityMeteo Station%Relative humidity
Missing or incorrect values are displayed as -999
Metereological data collected by the RV Zeeleeuw from 2009-04-06 08:38:26 to 2009-04-07 13:17:48
                                                                                    Next 1000 lines
Time Latitude Longitude Speed Direction Temperature Pressure Humidity
2009-04-06 08:38:36 51°13.071 2°50.776 5.9 331 11.3 101330 74
2009-04-06 08:38:41 51°13.071 2°50.781 6.1 331 11.3 101330 74
2009-04-06 08:38:46 51°13.071 2°50.786 6.1 332 11.3 101330 74
2009-04-06 08:38:51 51°13.071 2°50.79 5.8 331 11.3 101330 73
2009-04-06 08:38:56 51°13.07 2°50.795 6.7 284 11.3 101330 73
2009-04-06 08:39:01 51°13.069 2°50.799 6.8 327 11.3 101330 73
2009-04-06 08:39:06 51°13.068 2°50.804 6.8 303 11.3 101330 73
2009-04-06 08:39:11 51°13.066 2°50.808 6.7 322 11.4 101340 73
2009-04-06 08:39:16 51°13.064 2°50.812 5.4 305 11.4 101340 73
2009-04-06 08:39:21 51°13.062 2°50.816 5.9 26 11.4 101330 72
2009-04-06 08:39:26 51°13.06 2°50.818 6.7 305 11.4 101330 72
2009-04-06 08:39:31 51°13.059 2°50.821 6.2 18 11.4 101330 72
2009-04-06 08:39:35 51°13.057 2°50.823 7.1 310 11.4 101330 72
2009-04-06 08:39:41 51°13.055 2°50.825 7.4 24 11.4 101330 73
2009-04-06 08:39:46 51°13.053 2°50.827 7.2 307 11.4 101330 73
2009-04-06 08:39:51 51°13.052 2°50.828 6.9 26 11.5 101330 73
2009-04-06 08:39:55 51°13.05 2°50.828 5.5 306 11.5 101330 73
2009-04-06 08:40:01 51°13.049 2°50.828 6 24 11.5 101320 72
2009-04-06 08:40:06 51°13.048 2°50.828 7.2 307 11.5 101320 72
2009-04-06 08:40:11 51°13.046 2°50.827 5.8 246 11.5 101330 72
2009-04-06 08:40:16 51°13.045 2°50.827 6 301 11.5 101330 72
2009-04-06 08:40:21 51°13.044 2°50.827 7.6 252 11.5 101320 72
2009-04-06 08:40:26 51°13.044 2°50.826 5.8 302 11.5 101320 72
2009-04-06 08:40:31 51°13.044 2°50.826 7.4 253 11.5 101330 72
2009-04-06 08:40:36 51°13.043 2°50.825 5.5 308 11.5 101330 72
2009-04-06 08:40:41 51°13.043 2°50.825 6.9 255 11.5 101330 72
2009-04-06 08:40:46 51°13.043 2°50.825 6.4 308 11.5 101330 72
2009-04-06 08:40:51 51°13.043 2°50.824 6.7 253 11.6 101320 72
2009-04-06 08:40:56 51°13.043 2°50.824 5.6 285 11.6 101320 72
2009-04-06 08:41:01 51°13.044 2°50.823 7.1 258 11.6 101330 72
2009-04-06 08:41:07 51°13.044 2°50.823 5.8 305 11.6 101330 72
2009-04-06 08:41:11 51°13.044 2°50.823 6.6 260 11.6 101330 72
2009-04-06 08:41:16 51°13.045 2°50.822 4.5 306 11.6 101330 72
2009-04-06 08:41:21 51°13.045 2°50.822 7.1 259 11.6 101330 72
2009-04-06 08:41:26 51°13.046 2°50.822 5 303 11.6 101330 72
2009-04-06 08:41:31 51°13.046 2°50.822 5.3 259 11.6 101330 72
2009-04-06 08:41:35 51°13.047 2°50.822 5.8 307 11.6 101330 72
2009-04-06 08:41:41 51°13.048 2°50.821 6.2 260 11.7 101330 72
2009-04-06 08:41:46 51°13.048 2°50.821 5.3 302 11.7 101330 72
2009-04-06 08:41:51 51°13.049 2°50.821 4.6 260 11.7 101330 72
2009-04-06 08:41:55 51°13.05 2°50.821 5.4 303 11.7 101330 72
2009-04-06 08:42:01 51°13.05 2°50.821 4.5 262 11.7 101330 72
2009-04-06 08:42:06 51°13.051 2°50.821 4.1 308 11.7 101330 72
2009-04-06 08:42:11 51°13.052 2°50.821 4.9 260 11.7 101340 72
2009-04-06 08:42:16 51°13.053 2°50.822 5.1 309 11.7 101340 72
2009-04-06 08:42:21 51°13.054 2°50.822 4.5 263 11.7 101330 72
2009-04-06 08:42:26 51°13.054 2°50.822 4.4 310 11.7 101330 72
2009-04-06 08:42:31 51°13.055 2°50.822 3.9 262 11.7 101330 72
2009-04-06 08:42:36 51°13.056 2°50.822 3.8 307 11.7 101330 72
2009-04-06 08:42:41 51°13.057 2°50.823 5 259 11.7 101330 72
2009-04-06 08:42:46 51°13.058 2°50.823 5 307 11.7 101330 72
2009-04-06 08:42:51 51°13.059 2°50.823 5.3 260 11.7 101330 71
2009-04-06 08:42:56 51°13.06 2°50.823 4.3 286 11.7 101330 71
2009-04-06 08:43:01 51°13.061 2°50.824 5.1 261 11.7 101330 71
2009-04-06 08:43:07 51°13.062 2°50.824 3.7 310 11.7 101330 71
2009-04-06 08:43:11 51°13.062 2°50.825 4.6 262 11.7 101330 71
2009-04-06 08:43:16 51°13.064 2°50.825 3.1 301 11.7 101330 71
2009-04-06 08:43:21 51°13.065 2°50.825 2.9 263 11.7 101330 71
2009-04-06 08:43:26 51°13.066 2°50.826 3 304 11.7 101330 71
2009-04-06 08:43:31 51°13.067 2°50.826 3.6 262 11.7 101330 71
2009-04-06 08:43:35 51°13.067 2°50.827 3.8 307 11.7 101330 71
2009-04-06 08:43:41 51°13.069 2°50.827 3.8 262 11.7 101330 71
2009-04-06 08:43:46 51°13.07 2°50.828 4.2 303 11.7 101330 71
2009-04-06 08:43:51 51°13.071 2°50.828 4.2 262 11.7 101330 71
2009-04-06 08:43:55 51°13.072 2°50.828 4.2 303 11.7 101330 71
2009-04-06 08:44:01 51°13.073 2°50.829 4.3 262 11.7 101330 71
2009-04-06 08:44:06 51°13.074 2°50.83 4.9 308 11.7 101330 71
2009-04-06 08:44:11 51°13.075 2°50.831 4.1 263 11.7 101330 72
2009-04-06 08:44:16 51°13.076 2°50.831 4.5 304 11.7 101330 72
2009-04-06 08:44:21 51°13.077 2°50.832 4.5 262 11.7 101330 72
2009-04-06 08:44:26 51°13.079 2°50.833 4 310 11.7 101330 72
2009-04-06 08:44:31 51°13.08 2°50.834 3.1 264 11.7 101330 72
2009-04-06 08:44:36 51°13.081 2°50.834 3.6 309 11.7 101330 72
2009-04-06 08:44:41 51°13.082 2°50.835 3.8 264 11.7 101340 72
2009-04-06 08:44:46 51°13.083 2°50.836 3.5 307 11.7 101340 72
2009-04-06 08:44:51 51°13.084 2°50.837 3.4 263 11.7 101330 72
2009-04-06 08:44:56 51°13.085 2°50.838 3.2 280 11.7 101330 72
2009-04-06 08:45:01 51°13.086 2°50.839 2.9 263 11.7 101330 72
2009-04-06 08:45:07 51°13.088 2°50.84 2.8 303 11.7 101330 72
2009-04-06 08:45:11 51°13.089 2°50.841 3.5 263 11.7 101330 72
2009-04-06 08:45:16 51°13.09 2°50.841 3.5 310 11.7 101330 72
2009-04-06 08:45:21 51°13.092 2°50.842 3 264 11.7 101340 72
2009-04-06 08:45:26 51°13.093 2°50.843 3 302 11.7 101340 72
2009-04-06 08:45:31 51°13.094 2°50.844 3.4 264 11.7 101330 72
2009-04-06 08:45:35 51°13.095 2°50.845 2.6 302 11.7 101330 72
2009-04-06 08:45:41 51°13.096 2°50.846 2.9 265 11.8 101330 72
2009-04-06 08:45:46 51°13.098 2°50.847 3.2 302 11.8 101330 72
2009-04-06 08:45:51 51°13.098 2°50.848 3.4 265 11.8 101330 72
2009-04-06 08:45:55 51°13.1 2°50.849 3.7 304 11.8 101330 72
2009-04-06 08:46:01 51°13.101 2°50.85 2.9 264 11.7 101330 72
2009-04-06 08:46:06 51°13.102 2°50.852 3.6 309 11.7 101330 72
2009-04-06 08:46:11 51°13.103 2°50.853 3.2 262 11.8 101340 72
2009-04-06 08:46:16 51°13.105 2°50.854 4.8 308 11.8 101340 72
2009-04-06 08:46:21 51°13.106 2°50.855 3.2 264 11.7 101330 72
2009-04-06 08:46:26 51°13.107 2°50.856 4.2 306 11.7 101330 72
2009-04-06 08:46:31 51°13.108 2°50.857 4.5 261 11.8 101330 72
2009-04-06 08:46:36 51°13.109 2°50.859 3.8 307 11.8 101330 72
2009-04-06 08:46:41 51°13.111 2°50.859 3.3 263 11.8 101330 72
2009-04-06 08:46:46 51°13.112 2°50.861 3.4 308 11.8 101330 72
2009-04-06 08:46:51 51°13.114 2°50.862 3.2 263 11.7 101330 72
2009-04-06 08:46:56 51°13.115 2°50.862 3.1 286 11.7 101330 72
2009-04-06 08:47:01 51°13.116 2°50.864 3.5 262 11.7 101330 72
2009-04-06 08:47:06 51°13.118 2°50.865 3.7 305 11.7 101330 72
2009-04-06 08:47:11 51°13.119 2°50.866 3.1 263 11.7 101330 72
2009-04-06 08:47:16 51°13.12 2°50.867 3.3 303 11.7 101330 72
2009-04-06 08:47:21 51°13.121 2°50.869 3 263 11.7 101330 72
2009-04-06 08:47:26 51°13.122 2°50.87 3.9 305 11.7 101330 72
2009-04-06 08:47:31 51°13.124 2°50.871 3.8 262 11.7 101330 72
2009-04-06 08:47:35 51°13.125 2°50.872 5.5 302 11.7 101330 72
2009-04-06 08:47:41 51°13.126 2°50.874 5.1 261 11.7 101330 72
2009-04-06 08:47:46 51°13.128 2°50.875 5.8 305 11.7 101330 72
2009-04-06 08:47:51 51°13.129 2°50.876 5.1 261 11.7 101330 72
2009-04-06 08:47:55 51°13.13 2°50.877 5.9 286 11.7 101330 72
2009-04-06 08:48:01 51°13.132 2°50.879 5.4 261 11.7 101330 71
2009-04-06 08:48:06 51°13.133 2°50.88 4.3 306 11.7 101330 71
2009-04-06 08:48:11 51°13.134 2°50.881 5.5 261 11.7 101330 71
2009-04-06 08:48:16 51°13.136 2°50.883 5.2 310 11.7 101330 71
2009-04-06 08:48:21 51°13.137 2°50.884 4.1 262 11.7 101330 71
2009-04-06 08:48:26 51°13.138 2°50.886 5.9 307 11.7 101330 71
2009-04-06 08:48:31 51°13.139 2°50.887 5.9 259 11.7 101330 71
2009-04-06 08:48:36 51°13.141 2°50.889 5.5 304 11.7 101330 71
2009-04-06 08:48:41 51°13.142 2°50.89 5 260 11.8 101330 71
2009-04-06 08:48:46 51°13.144 2°50.891 4.7 301 11.8 101330 71
2009-04-06 08:48:51 51°13.145 2°50.892 5.3 261 11.8 101330 71
2009-04-06 08:48:56 51°13.147 2°50.894 4.8 284 11.8 101330 71
2009-04-06 08:49:01 51°13.148 2°50.895 5.4 262 11.8 101330 71
2009-04-06 08:49:06 51°13.149 2°50.897 5.1 309 11.8 101330 71
2009-04-06 08:49:11 51°13.151 2°50.898 4.7 261 11.8 101330 71
2009-04-06 08:49:16 51°13.152 2°50.9 4.9 302 11.8 101330 71
2009-04-06 08:49:21 51°13.153 2°50.901 4.7 260 11.8 101330 71
2009-04-06 08:49:26 51°13.155 2°50.903 3.5 304 11.8 101330 71
2009-04-06 08:49:31 51°13.156 2°50.904 2.5 262 11.9 101330 71
2009-04-06 08:49:35 51°13.157 2°50.906 4 302 11.9 101330 71
2009-04-06 08:49:41 51°13.158 2°50.907 5.3 260 11.9 101330 71
2009-04-06 08:49:46 51°13.16 2°50.909 5.2 303 11.9 101330 71
2009-04-06 08:49:51 51°13.161 2°50.91 5.2 261 11.9 101330 71
2009-04-06 08:49:55 51°13.162 2°50.911 4.8 304 11.9 101330 71
2009-04-06 08:50:01 51°13.163 2°50.913 4.9 260 11.9 101330 71
2009-04-06 08:50:06 51°13.164 2°50.915 6.9 307 11.9 101330 71
2009-04-06 08:50:11 51°13.164 2°50.916 5.7 255 11.9 101330 71
2009-04-06 08:50:16 51°13.164 2°50.917 6.8 308 11.9 101330 71
2009-04-06 08:50:21 51°13.164 2°50.917 6.3 249 11.8 101330 71
2009-04-06 08:50:27 51°13.164 2°50.918 6.6 304 11.8 101330 71
2009-04-06 08:50:31 51°13.163 2°50.918 5.4 249 11.9 101330 72
2009-04-06 08:50:36 51°13.163 2°50.918 5.1 310 11.9 101330 72
2009-04-06 08:50:41 51°13.163 2°50.918 6.3 22 11.9 101330 72
2009-04-06 08:50:46 51°13.163 2°50.918 5.9 303 11.9 101330 72
2009-04-06 08:50:51 51°13.163 2°50.918 5.4 23 11.9 101330 72
2009-04-06 08:50:56 51°13.163 2°50.918 6 278 11.9 101330 72
2009-04-06 08:51:01 51°13.162 2°50.918 5.3 244 11.9 101330 71
2009-04-06 08:51:06 51°13.162 2°50.917 4.8 302 11.9 101330 71
2009-04-06 08:51:11 51°13.162 2°50.917 5.7 250 11.9 101330 71
2009-04-06 08:51:16 51°13.162 2°50.917 4.5 305 11.9 101330 71
2009-04-06 08:51:21 51°13.162 2°50.917 6 21 11.9 101330 71
2009-04-06 08:51:26 51°13.162 2°50.917 5.3 304 11.9 101330 71
2009-04-06 08:51:31 51°13.162 2°50.917 5.5 22 11.9 101330 71
2009-04-06 08:51:35 51°13.162 2°50.917 6.5 310 11.9 101330 71
2009-04-06 08:51:41 51°13.162 2°50.917 5.2 22 11.9 101330 71
2009-04-06 08:51:46 51°13.162 2°50.917 5.3 311 11.9 101330 71
2009-04-06 08:51:51 51°13.163 2°50.917 6.9 19 12 101320 71
2009-04-06 08:51:56 51°13.163 2°50.917 4.8 303 12 101320 71
2009-04-06 08:52:01 51°13.163 2°50.917 6.2 253 12 101320 70
2009-04-06 08:52:06 51°13.163 2°50.917 6.1 303 12 101320 70
2009-04-06 08:52:11 51°13.163 2°50.916 6.5 250 12 101320 70
2009-04-06 08:52:16 51°13.163 2°50.916 5 310 12 101320 70
2009-04-06 08:52:21 51°13.163 2°50.916 5 249 12 101320 70
2009-04-06 08:52:26 51°13.164 2°50.916 6 309 12 101320 70
2009-04-06 08:52:31 51°13.164 2°50.916 5.3 20 12 101320 70
2009-04-06 08:52:36 51°13.164 2°50.915 5 305 12 101320 70
2009-04-06 08:52:41 51°13.164 2°50.915 5.8 247 12.1 101330 69
2009-04-06 08:52:46 51°13.164 2°50.914 5.8 303 12.1 101330 69
2009-04-06 08:52:51 51°13.164 2°50.914 5.9 247 12.1 101320 69
2009-04-06 08:52:56 51°13.164 2°50.914 6.7 280 12.1 101320 69
2009-04-06 08:53:01 51°13.164 2°50.914 5.1 247 12.1 101320 69
2009-04-06 08:53:06 51°13.165 2°50.913 4.9 304 12.1 101320 69
2009-04-06 08:53:11 51°13.165 2°50.912 6.1 246 12.1 101320 69
2009-04-06 08:53:16 51°13.165 2°50.912 5 303 12.1 101320 69
2009-04-06 08:53:21 51°13.165 2°50.912 5.8 20 12.1 101320 69
2009-04-06 08:53:26 51°13.165 2°50.912 4.9 302 12.1 101320 69
2009-04-06 08:53:31 51°13.165 2°50.912 4.8 21 12.2 101320 68
2009-04-06 08:53:36 51°13.165 2°50.911 4.7 303 12.2 101320 68
2009-04-06 08:53:41 51°13.165 2°50.911 4.9 247 12.2 101320 68
2009-04-06 08:53:46 51°13.165 2°50.912 5.9 304 12.2 101320 68
2009-04-06 08:53:51 51°13.165 2°50.911 5.8 247 12.2 101320 68
2009-04-06 08:53:56 51°13.165 2°50.911 4.9 286 12.2 101320 68
2009-04-06 08:54:01 51°13.165 2°50.911 6 19 12.2 101320 68
2009-04-06 08:54:06 51°13.165 2°50.911 5.3 310 12.2 101320 68
2009-04-06 08:54:11 51°13.165 2°50.911 5.5 248 12.2 101320 67
2009-04-06 08:54:16 51°13.165 2°50.911 5.7 310 12.2 101320 67
2009-04-06 08:54:21 51°13.165 2°50.911 5.5 245 12.3 101320 67
2009-04-06 08:54:26 51°13.165 2°50.911 4.9 307 12.3 101320 67
2009-04-06 08:54:31 51°13.165 2°50.91 5.5 23 12.3 101320 67
2009-04-06 08:54:36 51°13.165 2°50.911 4.6 304 12.3 101320 67
2009-04-06 08:54:41 51°13.165 2°50.911 5.3 248 12.3 101320 67
2009-04-06 08:54:46 51°13.165 2°50.911 5.4 302 12.3 101320 67
2009-04-06 08:54:51 51°13.165 2°50.911 5.1 246 12.3 101320 67
2009-04-06 08:54:56 51°13.165 2°50.911 5.1 283 12.3 101320 67
2009-04-06 08:55:01 51°13.165 2°50.911 4.3 247 12.3 101320 67
2009-04-06 08:55:06 51°13.165 2°50.911 5.4 309 12.3 101320 67
2009-04-06 08:55:11 51°13.165 2°50.91 4.6 21 12.4 101320 67
2009-04-06 08:55:16 51°13.165 2°50.911 5.2 302 12.4 101320 67
2009-04-06 08:55:21 51°13.165 2°50.911 5.5 247 12.4 101320 67
2009-04-06 08:55:26 51°13.165 2°50.911 5.1 309 12.4 101320 67
2009-04-06 08:55:31 51°13.165 2°50.911 5 246 12.4 101320 67
2009-04-06 08:55:36 51°13.165 2°50.911 4.8 304 12.4 101320 67
2009-04-06 08:55:41 51°13.165 2°50.911 4.8 21 12.4 101320 67
2009-04-06 08:55:46 51°13.165 2°50.911 3.9 309 12.4 101320 67
2009-04-06 08:55:51 51°13.165 2°50.911 4.7 246 12.4 101320 67
2009-04-06 08:55:56 51°13.165 2°50.912 4.7 280 12.4 101320 67
2009-04-06 08:56:01 51°13.165 2°50.912 4.6 247 12.4 101320 67
2009-04-06 08:56:06 51°13.164 2°50.912 4.6 307 12.4 101320 67
2009-04-06 08:56:11 51°13.164 2°50.913 4.8 248 12.4 101320 67
2009-04-06 08:56:16 51°13.164 2°50.913 4 302 12.4 101320 67
2009-04-06 08:56:21 51°13.164 2°50.913 3.9 21 12.4 101320 67
2009-04-06 08:56:26 51°13.164 2°50.913 4.1 303 12.4 101320 67
2009-04-06 08:56:31 51°13.164 2°50.913 5.5 22 12.4 101320 67
2009-04-06 08:56:36 51°13.164 2°50.913 5 304 12.4 101320 67
2009-04-06 08:56:41 51°13.164 2°50.914 3.9 21 12.4 101320 67
2009-04-06 08:56:46 51°13.164 2°50.914 5.3 308 12.4 101320 67
2009-04-06 08:56:51 51°13.164 2°50.914 4.1 250 12.5 101320 67
2009-04-06 08:56:56 51°13.164 2°50.914 4 281 12.5 101320 67
2009-04-06 08:57:01 51°13.163 2°50.915 3.8 22 12.5 101320 67
2009-04-06 08:57:06 51°13.163 2°50.915 3.6 302 12.5 101320 67
2009-04-06 08:57:11 51°13.163 2°50.915 4.7 22 12.5 101320 67
2009-04-06 08:57:16 51°13.163 2°50.915 4.1 305 12.5 101320 67
2009-04-06 08:57:21 51°13.163 2°50.915 4.3 246 12.5 101320 67
2009-04-06 08:57:26 51°13.163 2°50.915 4 302 12.5 101320 67
2009-04-06 08:57:31 51°13.163 2°50.915 4.9 248 12.5 101320 67
2009-04-06 08:57:36 51°13.163 2°50.916 4.4 310 12.5 101320 67
2009-04-06 08:57:41 51°13.163 2°50.915 4.8 248 12.5 101320 68
2009-04-06 08:57:46 51°13.163 2°50.915 4.6 302 12.5 101320 68
2009-04-06 08:57:51 51°13.163 2°50.915 3.8 248 12.5 101320 68
2009-04-06 08:57:56 51°13.164 2°50.915 4.8 304 12.5 101320 68
2009-04-06 08:58:01 51°13.164 2°50.915 3.9 21 12.5 101320 68
2009-04-06 08:58:06 51°13.164 2°50.915 4.6 304 12.5 101320 68
2009-04-06 08:58:11 51°13.163 2°50.915 4.9 250 12.5 101320 68
2009-04-06 08:58:16 51°13.163 2°50.915 4.6 304 12.5 101320 68
2009-04-06 08:58:21 51°13.163 2°50.915 3.8 19 12.5 101320 68
2009-04-06 08:58:26 51°13.163 2°50.915 3.3 302 12.5 101320 68
2009-04-06 08:58:31 51°13.163 2°50.915 4 19 12.5 101320 68
2009-04-06 08:58:36 51°13.164 2°50.915 3.9 304 12.5 101320 68
2009-04-06 08:58:41 51°13.163 2°50.915 5 20 12.5 101320 68
2009-04-06 08:58:46 51°13.163 2°50.915 4.7 308 12.5 101320 68
2009-04-06 08:58:51 51°13.164 2°50.915 4.1 249 12.5 101320 68
2009-04-06 08:58:56 51°13.164 2°50.915 4 286 12.5 101320 68
2009-04-06 08:59:01 51°13.163 2°50.915 3.7 20 12.5 101320 68
2009-04-06 08:59:06 51°13.163 2°50.916 3.8 309 12.5 101320 68
2009-04-06 08:59:11 51°13.163 2°50.916 5 252 12.5 101320 68
2009-04-06 08:59:16 51°13.163 2°50.915 3.9 307 12.5 101320 68
2009-04-06 08:59:21 51°13.163 2°50.916 4.6 251 12.6 101320 68
2009-04-06 08:59:26 51°13.163 2°50.916 5 302 12.6 101320 68
2009-04-06 08:59:31 51°13.163 2°50.916 4.3 252 12.6 101320 68
2009-04-06 08:59:36 51°13.163 2°50.915 5.4 302 12.6 101320 68
2009-04-06 08:59:41 51°13.163 2°50.915 4 249 12.5 101320 68
2009-04-06 08:59:46 51°13.163 2°50.915 4.2 307 12.5 101320 68
2009-04-06 08:59:51 51°13.163 2°50.915 4.8 253 12.6 101320 68
2009-04-06 08:59:56 51°13.163 2°50.915 3.9 302 12.6 101320 68
2009-04-06 09:00:01 51°13.163 2°50.915 5.5 247 12.6 101320 68
2009-04-06 09:00:06 51°13.163 2°50.915 4.5 302 12.6 101320 68
2009-04-06 09:00:11 51°13.163 2°50.916 4.6 248 12.6 101320 68
2009-04-06 09:00:16 51°13.163 2°50.915 5.6 301 12.6 101320 68
2009-04-06 09:00:21 51°13.163 2°50.915 5.3 245 12.6 101320 68
2009-04-06 09:00:26 51°13.163 2°50.915 4.5 308 12.6 101320 68
2009-04-06 09:00:31 51°13.163 2°50.916 5.1 251 12.6 101320 68
2009-04-06 09:00:36 51°13.163 2°50.916 4.6 304 12.6 101320 68
2009-04-06 09:00:41 51°13.163 2°50.916 4.4 249 12.6 101320 67
2009-04-06 09:00:46 51°13.163 2°50.916 5.5 304 12.6 101320 67
2009-04-06 09:00:51 51°13.163 2°50.916 5.7 249 12.6 101320 67
2009-04-06 09:00:56 51°13.163 2°50.916 4.4 280 12.6 101320 67
2009-04-06 09:01:01 51°13.163 2°50.916 4.4 249 12.6 101320 67
2009-04-06 09:01:06 51°13.163 2°50.916 5.8 308 12.6 101320 67
2009-04-06 09:01:11 51°13.163 2°50.916 4.6 250 12.6 101320 67
2009-04-06 09:01:16 51°13.162 2°50.916 4.7 306 12.6 101320 67
2009-04-06 09:01:21 51°13.162 2°50.917 4.9 249 12.6 101310 67
2009-04-06 09:01:26 51°13.163 2°50.916 5.9 303 12.6 101310 67
2009-04-06 09:01:31 51°13.163 2°50.916 5.6 21 12.6 101320 67
2009-04-06 09:01:36 51°13.163 2°50.915 5.7 305 12.6 101320 67
2009-04-06 09:01:41 51°13.163 2°50.915 5.8 19 12.6 101320 67
2009-04-06 09:01:46 51°13.163 2°50.915 5.7 310 12.6 101320 67
2009-04-06 09:01:51 51°13.163 2°50.915 5.6 247 12.6 101320 67
2009-04-06 09:01:56 51°13.163 2°50.915 4.5 283 12.6 101320 67
2009-04-06 09:02:01 51°13.163 2°50.915 4.5 250 12.6 101320 66
2009-04-06 09:02:06 51°13.163 2°50.915 5.2 304 12.6 101320 66
2009-04-06 09:02:11 51°13.163 2°50.914 4.1 253 12.6 101310 66
2009-04-06 09:02:16 51°13.163 2°50.914 4.6 308 12.6 101310 66
2009-04-06 09:02:21 51°13.163 2°50.914 4.5 255 12.7 101320 66
2009-04-06 09:02:26 51°13.163 2°50.914 5.3 310 12.7 101320 66
2009-04-06 09:02:31 51°13.164 2°50.914 4.8 252 12.7 101310 66
2009-04-06 09:02:36 51°13.164 2°50.914 4.5 308 12.7 101310 66
2009-04-06 09:02:41 51°13.164 2°50.913 5.9 251 12.7 101310 67
2009-04-06 09:02:46 51°13.164 2°50.913 6.1 304 12.7 101310 67
2009-04-06 09:02:51 51°13.164 2°50.913 6 252 12.7 101310 67
2009-04-06 09:02:56 51°13.164 2°50.914 5.8 307 12.7 101310 67
2009-04-06 09:03:01 51°13.164 2°50.914 5 249 12.7 101320 67
2009-04-06 09:03:06 51°13.164 2°50.913 4.9 304 12.7 101320 67
2009-04-06 09:03:11 51°13.164 2°50.913 4.7 20 12.7 101320 66
2009-04-06 09:03:16 51°13.164 2°50.913 5.9 303 12.7 101320 66
2009-04-06 09:03:21 51°13.164 2°50.913 4.8 251 12.7 101310 66
2009-04-06 09:03:26 51°13.164 2°50.913 5 302 12.7 101310 66
2009-04-06 09:03:31 51°13.164 2°50.914 6 250 12.7 101320 66
2009-04-06 09:03:36 51°13.164 2°50.914 5 302 12.7 101320 66
2009-04-06 09:03:41 51°13.164 2°50.913 5.2 251 12.7 101310 66
2009-04-06 09:03:46 51°13.164 2°50.913 6.2 310 12.7 101310 66
2009-04-06 09:03:51 51°13.165 2°50.913 5.9 248 12.7 101320 66
2009-04-06 09:03:56 51°13.165 2°50.913 5.8 286 12.7 101320 66
2009-04-06 09:04:01 51°13.165 2°50.913 5.9 249 12.7 101310 66
2009-04-06 09:04:06 51°13.164 2°50.914 6.2 305 12.7 101310 66
2009-04-06 09:04:11 51°13.164 2°50.914 6.1 250 12.7 101310 66
2009-04-06 09:04:16 51°13.164 2°50.915 6.1 308 12.7 101310 66
2009-04-06 09:04:21 51°13.164 2°50.915 4.8 250 12.7 101310 66
2009-04-06 09:04:26 51°13.163 2°50.915 5.8 310 12.7 101310 66
2009-04-06 09:04:31 51°13.164 2°50.915 5.8 250 12.7 101310 66
2009-04-06 09:04:36 51°13.164 2°50.914 4.6 303 12.7 101310 66
2009-04-06 09:04:41 51°13.164 2°50.915 5.9 252 12.7 101310 66
2009-04-06 09:04:46 51°13.164 2°50.914 4.6 306 12.7 101310 66
2009-04-06 09:04:51 51°13.164 2°50.915 5.7 251 12.7 101310 66
2009-04-06 09:04:56 51°13.164 2°50.914 4.6 309 12.7 101310 66
2009-04-06 09:05:01 51°13.164 2°50.915 5.8 250 12.7 101310 66
2009-04-06 09:05:06 51°13.164 2°50.915 4.7 308 12.7 101310 66
2009-04-06 09:05:11 51°13.163 2°50.915 5.5 251 12.7 101310 66
2009-04-06 09:05:16 51°13.163 2°50.915 5.5 308 12.7 101310 66
2009-04-06 09:05:21 51°13.163 2°50.916 4.6 251 12.7 101310 66
2009-04-06 09:05:26 51°13.163 2°50.916 5.7 304 12.7 101310 66
2009-04-06 09:05:31 51°13.163 2°50.916 4.4 252 12.7 101310 66
2009-04-06 09:05:36 51°13.163 2°50.916 5.8 304 12.7 101310 66
2009-04-06 09:05:41 51°13.163 2°50.916 5.8 253 12.8 101310 66
2009-04-06 09:05:46 51°13.163 2°50.916 4.5 305 12.8 101310 66
2009-04-06 09:05:51 51°13.163 2°50.915 4.3 253 12.8 101310 66
2009-04-06 09:05:56 51°13.164 2°50.915 4.3 282 12.8 101310 66
2009-04-06 09:06:01 51°13.164 2°50.915 5.6 253 12.8 101310 66
2009-04-06 09:06:06 51°13.164 2°50.915 4.5 304 12.8 101310 66
2009-04-06 09:06:11 51°13.164 2°50.915 4.4 252 12.8 101310 66
2009-04-06 09:06:16 51°13.164 2°50.915 4.2 304 12.8 101310 66
2009-04-06 09:06:21 51°13.163 2°50.916 5.3 250 12.8 101310 66
2009-04-06 09:06:26 51°13.163 2°50.916 4.5 308 12.8 101310 66
2009-04-06 09:06:31 51°13.164 2°50.916 5.6 252 12.8 101310 66
2009-04-06 09:06:36 51°13.163 2°50.916 4.4 303 12.8 101310 66
2009-04-06 09:06:41 51°13.164 2°50.916 5.3 254 12.8 101310 66
2009-04-06 09:06:46 51°13.163 2°50.916 4.1 303 12.8 101310 66
2009-04-06 09:06:51 51°13.163 2°50.916 4.2 253 12.8 101310 66
2009-04-06 09:06:56 51°13.163 2°50.916 4.8 281 12.8 101310 66
2009-04-06 09:07:01 51°13.163 2°50.916 5.2 253 12.8 101310 66
2009-04-06 09:07:06 51°13.163 2°50.916 4.5 309 12.8 101310 66
2009-04-06 09:07:11 51°13.163 2°50.916 4.8 251 12.8 101310 66
2009-04-06 09:07:16 51°13.163 2°50.916 4.9 303 12.8 101310 66
2009-04-06 09:07:21 51°13.163 2°50.916 4.1 252 12.8 101310 66
2009-04-06 09:07:26 51°13.163 2°50.916 4.9 308 12.8 101310 66
2009-04-06 09:07:31 51°13.163 2°50.915 4.1 253 12.8 101300 66
2009-04-06 09:07:36 51°13.163 2°50.916 3.8 304 12.8 101300 66
2009-04-06 09:07:41 51°13.163 2°50.916 3.7 252 12.9 101310 66
2009-04-06 09:07:46 51°13.163 2°50.916 4.4 302 12.9 101310 66
2009-04-06 09:07:51 51°13.163 2°50.916 4 253 12.8 101300 66
2009-04-06 09:07:56 51°13.163 2°50.916 4.1 284 12.8 101300 66
2009-04-06 09:08:01 51°13.164 2°50.915 4.8 253 12.9 101310 66
2009-04-06 09:08:06 51°13.164 2°50.915 4.2 308 12.9 101310 66
2009-04-06 09:08:11 51°13.163 2°50.916 4.7 252 12.9 101310 66
2009-04-06 09:08:16 51°13.163 2°50.916 4.9 308 12.9 101310 66
2009-04-06 09:08:21 51°13.163 2°50.917 4 252 12.9 101300 66
2009-04-06 09:08:26 51°13.162 2°50.917 5.1 304 12.9 101300 66
2009-04-06 09:08:31 51°13.162 2°50.917 4.2 252 12.9 101310 66
2009-04-06 09:08:36 51°13.163 2°50.917 5 310 12.9 101310 66
2009-04-06 09:08:41 51°13.162 2°50.917 4.6 253 12.9 101300 66
2009-04-06 09:08:46 51°13.162 2°50.917 5 308 12.9 101300 66
2009-04-06 09:08:51 51°13.163 2°50.916 5.3 249 12.9 101300 66
2009-04-06 09:08:56 51°13.163 2°50.916 4.7 287 12.9 101300 66
2009-04-06 09:09:01 51°13.163 2°50.916 4.9 254 12.9 101300 66
2009-04-06 09:09:06 51°13.163 2°50.916 4.9 310 12.9 101300 66
2009-04-06 09:09:11 51°13.163 2°50.916 4 253 12.9 101300 66
2009-04-06 09:09:16 51°13.163 2°50.916 3.9 307 12.9 101300 66
2009-04-06 09:09:21 51°13.163 2°50.916 3.8 251 12.9 101300 66
2009-04-06 09:09:26 51°13.163 2°50.916 4.9 310 12.9 101300 66
2009-04-06 09:09:31 51°13.163 2°50.916 4.1 251 12.9 101300 66
2009-04-06 09:09:36 51°13.163 2°50.916 3.6 308 12.9 101300 66
2009-04-06 09:09:41 51°13.163 2°50.916 3.8 250 12.9 101300 66
2009-04-06 09:09:46 51°13.163 2°50.916 4.9 303 12.9 101300 66
2009-04-06 09:09:51 51°13.163 2°50.916 4.1 252 12.9 101300 66
2009-04-06 09:09:56 51°13.163 2°50.916 3.9 302 12.9 101300 66
2009-04-06 09:10:01 51°13.163 2°50.916 4.8 251 12.9 101300 66
2009-04-06 09:10:06 51°13.163 2°50.916 4.9 304 12.9 101300 66
2009-04-06 09:10:11 51°13.163 2°50.916 4 253 12.9 101300 65
2009-04-06 09:10:16 51°13.164 2°50.916 4.5 302 12.9 101300 65
2009-04-06 09:10:21 51°13.163 2°50.916 4.4 253 12.9 101300 66
2009-04-06 09:10:26 51°13.163 2°50.916 4.1 306 12.9 101300 66
2009-04-06 09:10:31 51°13.163 2°50.916 3.5 253 13 101300 66
2009-04-06 09:10:36 51°13.163 2°50.916 3.4 310 13 101300 66
2009-04-06 09:10:41 51°13.164 2°50.916 4.3 252 13 101300 66
2009-04-06 09:10:46 51°13.163 2°50.916 3.9 303 13 101300 66
2009-04-06 09:10:51 51°13.164 2°50.916 3.5 251 13 101300 66
2009-04-06 09:10:56 51°13.163 2°50.916 3.3 280 13 101300 66
2009-04-06 09:11:01 51°13.163 2°50.916 4.4 251 13 101300 66
2009-04-06 09:11:06 51°13.163 2°50.917 3.2 304 13 101300 66
2009-04-06 09:11:11 51°13.163 2°50.917 3.6 252 13 101300 66
2009-04-06 09:11:16 51°13.163 2°50.916 3.3 308 13 101300 66
2009-04-06 09:11:21 51°13.164 2°50.916 3.9 251 13 101300 66
2009-04-06 09:11:26 51°13.164 2°50.916 3.3 307 13 101300 66
2009-04-06 09:11:31 51°13.163 2°50.916 3.5 251 13 101300 66
2009-04-06 09:11:36 51°13.163 2°50.916 4.3 307 13 101300 66
2009-04-06 09:11:41 51°13.164 2°50.916 3.3 252 13 101300 66
2009-04-06 09:11:46 51°13.164 2°50.916 3.3 303 13 101300 66
2009-04-06 09:11:51 51°13.163 2°50.916 3.2 252 13 101300 66
2009-04-06 09:11:56 51°13.163 2°50.916 4 281 13 101300 66
2009-04-06 09:12:01 51°13.163 2°50.917 3.8 252 13 101300 66
2009-04-06 09:12:06 51°13.163 2°50.917 2.9 302 13 101300 66
2009-04-06 09:12:11 51°13.163 2°50.916 3.9 251 13 101300 66
2009-04-06 09:12:16 51°13.163 2°50.916 3 302 13 101300 66
2009-04-06 09:12:21 51°13.163 2°50.916 3.7 253 13.1 101300 66
2009-04-06 09:12:26 51°13.163 2°50.916 2.9 304 13.1 101300 66
2009-04-06 09:12:31 51°13.163 2°50.916 2.9 251 13 101300 66
2009-04-06 09:12:36 51°13.163 2°50.917 3.8 310 13 101300 66
2009-04-06 09:12:41 51°13.162 2°50.917 3.3 251 13.1 101300 66
2009-04-06 09:12:47 51°13.162 2°50.917 3 303 13.1 101300 66
2009-04-06 09:12:51 51°13.162 2°50.917 4 250 13.1 101300 66
2009-04-06 09:12:56 51°13.162 2°50.917 3.3 286 13.1 101300 66
2009-04-06 09:13:01 51°13.162 2°50.917 3.2 250 13.1 101300 66
2009-04-06 09:13:06 51°13.162 2°50.917 4 304 13.1 101300 66
2009-04-06 09:13:11 51°13.162 2°50.917 4.1 19 13.1 101300 65
2009-04-06 09:13:15 51°13.162 2°50.917 4.1 305 13.1 101300 65
2009-04-06 09:13:21 51°13.162 2°50.917 3.4 250 13.1 101300 65
2009-04-06 09:13:26 51°13.162 2°50.917 3.7 310 13.1 101300 65
2009-04-06 09:13:31 51°13.162 2°50.917 3.4 250 13.1 101300 65
2009-04-06 09:13:36 51°13.162 2°50.917 4.1 304 13.1 101300 65
2009-04-06 09:13:41 51°13.162 2°50.917 4 251 13.1 101300 65
2009-04-06 09:13:46 51°13.162 2°50.917 3.9 305 13.1 101300 65
2009-04-06 09:13:51 51°13.162 2°50.917 3.4 252 13.1 101300 65
2009-04-06 09:13:55 51°13.162 2°50.917 4.1 311 13.1 101300 65
2009-04-06 09:14:01 51°13.162 2°50.917 3.9 251 13.1 101300 65
2009-04-06 09:14:06 51°13.162 2°50.917 3.7 309 13.1 101300 65
2009-04-06 09:14:11 51°13.162 2°50.918 3 251 13.1 101300 65
2009-04-06 09:14:16 51°13.162 2°50.918 3.7 304 13.1 101300 65
2009-04-06 09:14:21 51°13.162 2°50.918 3.6 252 13.2 101300 65
2009-04-06 09:14:26 51°13.162 2°50.918 3.7 309 13.2 101300 65
2009-04-06 09:14:31 51°13.161 2°50.918 3 249 13.2 101300 65
2009-04-06 09:14:35 51°13.161 2°50.919 3.9 304 13.2 101300 65
2009-04-06 09:14:41 51°13.161 2°50.919 3.9 250 13.2 101300 65
2009-04-06 09:14:46 51°13.161 2°50.919 3.9 304 13.2 101300 65
2009-04-06 09:14:51 51°13.161 2°50.919 4 251 13.2 101300 65
2009-04-06 09:14:56 51°13.161 2°50.919 3.8 283 13.2 101300 65
2009-04-06 09:15:01 51°13.161 2°50.92 3.3 250 13.2 101300 65
2009-04-06 09:15:06 51°13.161 2°50.92 3.2 304 13.2 101300 65
2009-04-06 09:15:11 51°13.161 2°50.921 4.1 250 13.3 101300 66
2009-04-06 09:15:16 51°13.161 2°50.921 3.7 303 13.3 101300 66
2009-04-06 09:15:21 51°13.161 2°50.921 4.1 250 13.3 101290 66
2009-04-06 09:15:26 51°13.16 2°50.921 3.4 302 13.3 101290 66
2009-04-06 09:15:31 51°13.16 2°50.921 3.4 250 13.3 101300 66
2009-04-06 09:15:36 51°13.16 2°50.922 3.9 303 13.3 101300 66
2009-04-06 09:15:41 51°13.16 2°50.922 3.5 247 13.3 101290 66
2009-04-06 09:15:46 51°13.16 2°50.922 3.8 304 13.3 101290 66
2009-04-06 09:15:51 51°13.159 2°50.922 3.9 246 13.3 101290 66
2009-04-06 09:15:56 51°13.159 2°50.922 3.5 308 13.3 101290 66
2009-04-06 09:16:01 51°13.159 2°50.922 3.1 21 13.3 101290 66
2009-04-06 09:16:06 51°13.159 2°50.922 3.3 307 13.3 101290 66
2009-04-06 09:16:11 51°13.159 2°50.922 3.1 250 13.3 101300 65
2009-04-06 09:16:16 51°13.158 2°50.922 3.9 305 13.3 101300 65
2009-04-06 09:16:21 51°13.158 2°50.922 3.8 19 13.3 101300 66
2009-04-06 09:16:26 51°13.158 2°50.923 4 308 13.3 101300 66
2009-04-06 09:16:31 51°13.158 2°50.923 3 23 13.4 101300 65
2009-04-06 09:16:36 51°13.158 2°50.923 3.4 304 13.4 101300 65
2009-04-06 09:16:41 51°13.158 2°50.923 3 20 13.4 101290 65
2009-04-06 09:16:46 51°13.158 2°50.923 3.4 302 13.4 101290 65
2009-04-06 09:16:51 51°13.157 2°50.923 4 20 13.4 101290 65
2009-04-06 09:16:56 51°13.157 2°50.923 3.4 280 13.4 101290 65
2009-04-06 09:17:01 51°13.157 2°50.924 4.3 245 13.4 101300 65
2009-04-06 09:17:06 51°13.157 2°50.924 3.8 304 13.4 101300 65
2009-04-06 09:17:11 51°13.157 2°50.924 3.1 246 13.5 101300 65
2009-04-06 09:17:16 51°13.157 2°50.924 3.8 304 13.5 101300 65
2009-04-06 09:17:21 51°13.157 2°50.924 3.7 20 13.5 101290 65
2009-04-06 09:17:26 51°13.157 2°50.924 3.3 308 13.5 101290 65
2009-04-06 09:17:31 51°13.156 2°50.924 4 24 13.5 101300 65
2009-04-06 09:17:36 51°13.156 2°50.925 3.6 304 13.5 101300 65
2009-04-06 09:17:41 51°13.156 2°50.925 3.5 20 13.5 101290 65
2009-04-06 09:17:46 51°13.156 2°50.925 4.3 304 13.5 101290 65
2009-04-06 09:17:51 51°13.156 2°50.925 4.2 19 13.6 101300 65
2009-04-06 09:17:56 51°13.156 2°50.925 3.8 309 13.6 101300 65
2009-04-06 09:18:01 51°13.156 2°50.925 4 250 13.5 101300 65
2009-04-06 09:18:06 51°13.156 2°50.925 3.8 307 13.5 101300 65
2009-04-06 09:18:11 51°13.156 2°50.925 3.8 249 13.6 101290 65
2009-04-06 09:18:16 51°13.156 2°50.924 3.1 309 13.6 101290 65
2009-04-06 09:18:21 51°13.156 2°50.924 3.2 249 13.5 101290 65
2009-04-06 09:18:26 51°13.156 2°50.925 3.2 304 13.5 101290 65
2009-04-06 09:18:31 51°13.156 2°50.925 3.7 252 13.5 101290 65
2009-04-06 09:18:36 51°13.156 2°50.925 4.1 303 13.5 101290 65
2009-04-06 09:18:41 51°13.156 2°50.925 4.9 255 13.6 101290 65
2009-04-06 09:18:46 51°13.156 2°50.925 4.2 304 13.6 101290 65
2009-04-06 09:18:51 51°13.156 2°50.925 4.5 253 13.6 101290 65
2009-04-06 09:18:55 51°13.156 2°50.925 4.6 278 13.6 101290 65
2009-04-06 09:19:01 51°13.156 2°50.925 3.6 252 13.6 101290 65
2009-04-06 09:19:06 51°13.156 2°50.924 4.4 308 13.6 101290 65
2009-04-06 09:19:11 51°13.156 2°50.924 4.1 252 13.6 101290 65
2009-04-06 09:19:16 51°13.156 2°50.924 3.4 302 13.6 101290 65
2009-04-06 09:19:21 51°13.156 2°50.924 4.4 255 13.6 101290 65
2009-04-06 09:19:26 51°13.156 2°50.924 3.5 303 13.6 101290 65
2009-04-06 09:19:31 51°13.157 2°50.924 3.9 251 13.6 101290 65
2009-04-06 09:19:35 51°13.156 2°50.924 4 303 13.6 101290 65
2009-04-06 09:19:41 51°13.156 2°50.924 3.7 254 13.6 101290 65
2009-04-06 09:19:46 51°13.156 2°50.924 3.1 303 13.6 101290 65
2009-04-06 09:19:51 51°13.157 2°50.923 3.8 253 13.7 101290 64
2009-04-06 09:19:56 51°13.157 2°50.923 3.6 284 13.7 101290 64
2009-04-06 09:20:01 51°13.157 2°50.923 3.4 252 13.7 101290 64
2009-04-06 09:20:06 51°13.157 2°50.923 4.7 308 13.7 101290 64
2009-04-06 09:20:11 51°13.157 2°50.924 5 254 13.7 101290 64
2009-04-06 09:20:15 51°13.156 2°50.924 5.7 302 13.7 101290 64
2009-04-06 09:20:21 51°13.156 2°50.924 5.1 256 13.7 101290 64
2009-04-06 09:20:26 51°13.156 2°50.924 5.5 310 13.7 101290 64
2009-04-06 09:20:31 51°13.156 2°50.925 4.6 253 13.7 101290 64
2009-04-06 09:20:36 51°13.156 2°50.925 6 302 13.7 101290 64
2009-04-06 09:20:41 51°13.156 2°50.925 4.7 254 13.7 101290 64
2009-04-06 09:20:46 51°13.156 2°50.925 4.9 310 13.7 101290 64
2009-04-06 09:20:51 51°13.156 2°50.925 5.4 254 13.7 101290 64
2009-04-06 09:20:56 51°13.156 2°50.924 5.7 286 13.7 101290 64
2009-04-06 09:21:01 51°13.157 2°50.924 5.1 252 13.7 101290 64
2009-04-06 09:21:06 51°13.157 2°50.924 5.6 301 13.7 101290 64
2009-04-06 09:21:11 51°13.157 2°50.924 4.9 251 13.7 101290 64
2009-04-06 09:21:16 51°13.157 2°50.924 5.2 309 13.7 101290 64
2009-04-06 09:21:21 51°13.156 2°50.924 5.6 252 13.7 101290 63
2009-04-06 09:21:26 51°13.156 2°50.925 4.7 309 13.7 101290 63
2009-04-06 09:21:31 51°13.156 2°50.925 6 253 13.7 101290 63
2009-04-06 09:21:36 51°13.156 2°50.925 5.7 302 13.7 101290 63
2009-04-06 09:21:41 51°13.156 2°50.925 5.2 255 13.7 101280 63
2009-04-06 09:21:46 51°13.156 2°50.924 5.9 304 13.7 101280 63
2009-04-06 09:21:51 51°13.156 2°50.924 6 255 13.7 101290 63
2009-04-06 09:21:56 51°13.156 2°50.924 5.4 280 13.7 101290 63
2009-04-06 09:22:01 51°13.156 2°50.925 4.7 255 13.7 101290 63
2009-04-06 09:22:06 51°13.155 2°50.926 5.9 308 13.7 101290 63
2009-04-06 09:22:11 51°13.155 2°50.926 4.7 254 13.7 101290 63
2009-04-06 09:22:16 51°13.155 2°50.926 5 307 13.7 101290 63
2009-04-06 09:22:21 51°13.155 2°50.927 4.5 253 13.7 101290 63
2009-04-06 09:22:26 51°13.155 2°50.927 4.8 303 13.7 101290 63
2009-04-06 09:22:31 51°13.155 2°50.926 4.9 254 13.7 101290 63
2009-04-06 09:22:36 51°13.155 2°50.926 5.8 303 13.7 101290 63
2009-04-06 09:22:41 51°13.155 2°50.926 6 253 13.7 101290 62
2009-04-06 09:22:46 51°13.155 2°50.925 4.7 304 13.7 101290 62
2009-04-06 09:22:51 51°13.156 2°50.925 5.5 252 13.7 101280 62
2009-04-06 09:22:56 51°13.156 2°50.925 5.7 285 13.7 101280 62
2009-04-06 09:23:01 51°13.156 2°50.924 4.8 252 13.7 101280 62
2009-04-06 09:23:06 51°13.157 2°50.923 4.5 304 13.7 101280 62
2009-04-06 09:23:11 51°13.156 2°50.924 5.5 253 13.7 101290 62
2009-04-06 09:23:16 51°13.156 2°50.925 4.9 308 13.7 101290 62
2009-04-06 09:23:21 51°13.155 2°50.926 5.8 252 13.7 101290 62
2009-04-06 09:23:26 51°13.155 2°50.927 4.8 305 13.7 101290 62
2009-04-06 09:23:31 51°13.154 2°50.927 4.8 253 13.7 101290 62
2009-04-06 09:23:36 51°13.154 2°50.927 5.1 301 13.7 101290 62
2009-04-06 09:23:41 51°13.154 2°50.927 4.9 253 13.8 101280 61
2009-04-06 09:23:46 51°13.154 2°50.927 6.1 303 13.8 101280 61
2009-04-06 09:23:51 51°13.154 2°50.927 5.8 255 13.8 101290 61
2009-04-06 09:23:56 51°13.154 2°50.927 5.5 278 13.8 101290 61
2009-04-06 09:24:01 51°13.155 2°50.927 4.3 254 13.8 101290 61
2009-04-06 09:24:07 51°13.155 2°50.926 5.4 305 13.8 101290 61
2009-04-06 09:24:11 51°13.155 2°50.926 4.2 254 13.8 101280 61
2009-04-06 09:24:16 51°13.155 2°50.926 4 301 13.8 101280 61
2009-04-06 09:24:21 51°13.155 2°50.926 5.2 254 13.8 101280 61
2009-04-06 09:24:26 51°13.155 2°50.927 5.1 304 13.8 101280 61
2009-04-06 09:24:31 51°13.155 2°50.927 4.4 252 13.8 101280 61
2009-04-06 09:24:35 51°13.154 2°50.927 5.5 302 13.8 101280 61
2009-04-06 09:24:41 51°13.154 2°50.927 4.5 251 13.8 101280 61
2009-04-06 09:24:46 51°13.155 2°50.926 4.4 301 13.8 101280 61
2009-04-06 09:24:51 51°13.155 2°50.925 5.3 249 13.8 101280 62
2009-04-06 09:24:56 51°13.155 2°50.926 4.2 286 13.8 101280 62
2009-04-06 09:25:01 51°13.155 2°50.926 5.1 250 13.8 101280 61
2009-04-06 09:25:06 51°13.156 2°50.925 3.6 304 13.8 101280 61
2009-04-06 09:25:11 51°13.156 2°50.925 3.6 253 13.8 101280 61
2009-04-06 09:25:15 51°13.156 2°50.925 3.4 302 13.8 101280 61
2009-04-06 09:25:21 51°13.155 2°50.926 3.6 253 13.8 101280 61
2009-04-06 09:25:26 51°13.155 2°50.926 4.4 302 13.8 101280 61
2009-04-06 09:25:31 51°13.155 2°50.927 4.3 252 13.8 101280 61
2009-04-06 09:25:36 51°13.154 2°50.927 4.6 304 13.8 101280 61
2009-04-06 09:25:41 51°13.155 2°50.927 4.7 254 13.9 101280 61
2009-04-06 09:25:46 51°13.155 2°50.927 4.7 301 13.9 101280 61
2009-04-06 09:25:51 51°13.155 2°50.927 4.3 252 13.9 101290 61
2009-04-06 09:25:55 51°13.155 2°50.926 4.7 279 13.9 101290 61
2009-04-06 09:26:01 51°13.155 2°50.926 3.7 257 13.9 101280 61
2009-04-06 09:26:06 51°13.155 2°50.926 4.4 306 13.9 101280 61
2009-04-06 09:26:11 51°13.155 2°50.926 3.7 257 13.9 101280 61
2009-04-06 09:26:16 51°13.155 2°50.926 4 301 13.9 101280 61
2009-04-06 09:26:21 51°13.155 2°50.926 4.9 258 13.9 101280 62
2009-04-06 09:26:26 51°13.155 2°50.927 3.9 307 13.9 101280 62
2009-04-06 09:26:31 51°13.155 2°50.927 3.9 255 13.9 101280 62
2009-04-06 09:26:36 51°13.155 2°50.927 3.8 303 13.9 101280 62
2009-04-06 09:26:41 51°13.155 2°50.926 4.1 255 13.9 101280 62
2009-04-06 09:26:46 51°13.155 2°50.927 4.7 306 13.9 101280 62
2009-04-06 09:26:51 51°13.155 2°50.927 4.5 256 13.9 101280 62
2009-04-06 09:26:56 51°13.155 2°50.927 5.7 280 13.9 101280 62
2009-04-06 09:27:01 51°13.155 2°50.927 5 253 13.9 101280 62
2009-04-06 09:27:06 51°13.154 2°50.927 3.8 309 13.9 101280 62
2009-04-06 09:27:11 51°13.154 2°50.927 5.4 251 13.9 101280 62
2009-04-06 09:27:16 51°13.154 2°50.927 5.1 304 13.9 101280 62
2009-04-06 09:27:21 51°13.155 2°50.927 5.1 250 13.9 101280 62
2009-04-06 09:27:26 51°13.154 2°50.927 4.6 309 13.9 101280 62
2009-04-06 09:27:31 51°13.154 2°50.927 6.3 250 13.9 101280 62
2009-04-06 09:27:36 51°13.155 2°50.927 4.7 303 13.9 101280 62
2009-04-06 09:27:41 51°13.155 2°50.926 4.8 247 13.9 101280 62
2009-04-06 09:27:46 51°13.155 2°50.927 5.6 306 13.9 101280 62
2009-04-06 09:27:51 51°13.155 2°50.927 6.7 253 13.9 101280 62
2009-04-06 09:27:56 51°13.154 2°50.927 6.6 304 13.9 101280 62
2009-04-06 09:28:01 51°13.154 2°50.928 7 253 13.9 101280 61
2009-04-06 09:28:06 51°13.154 2°50.928 6 302 13.9 101280 61
2009-04-06 09:28:11 51°13.154 2°50.928 5.4 256 13.9 101280 61
2009-04-06 09:28:16 51°13.154 2°50.928 4.9 303 13.9 101280 61
2009-04-06 09:28:21 51°13.154 2°50.928 5.4 250 13.9 101280 61
2009-04-06 09:28:26 51°13.155 2°50.928 4.9 309 13.9 101280 61
2009-04-06 09:28:31 51°13.155 2°50.928 5.3 21 14 101280 61
2009-04-06 09:28:36 51°13.155 2°50.927 5.4 308 14 101280 61
2009-04-06 09:28:41 51°13.155 2°50.927 5.1 249 14 101280 61
2009-04-06 09:28:47 51°13.155 2°50.927 5.9 311 14 101280 61
2009-04-06 09:28:51 51°13.155 2°50.927 4.5 251 14 101280 61
2009-04-06 09:28:56 51°13.155 2°50.927 5 282 14 101280 61
2009-04-06 09:29:01 51°13.155 2°50.927 4.4 256 14 101280 61
2009-04-06 09:29:07 51°13.156 2°50.927 4.6 308 14 101280 61
2009-04-06 09:29:11 51°13.156 2°50.927 5 252 14 101280 61
2009-04-06 09:29:16 51°13.156 2°50.927 4.2 308 14 101280 61
2009-04-06 09:29:21 51°13.156 2°50.927 4 253 14 101280 60
2009-04-06 09:29:26 51°13.156 2°50.927 4.6 304 14 101280 60
2009-04-06 09:29:31 51°13.156 2°50.927 4.6 253 14 101280 61
2009-04-06 09:29:36 51°13.156 2°50.927 3.3 302 14 101280 61
2009-04-06 09:29:41 51°13.156 2°50.927 3.5 20 14 101280 61
2009-04-06 09:29:46 51°13.156 2°50.926 3.3 306 14 101280 61
2009-04-06 09:29:51 51°13.156 2°50.926 4.2 249 14 101280 61
2009-04-06 09:29:56 51°13.157 2°50.926 4.1 282 14 101280 61
2009-04-06 09:30:01 51°13.156 2°50.926 4.1 252 14 101280 61
2009-04-06 09:30:06 51°13.157 2°50.926 4.2 303 14 101280 61
2009-04-06 09:30:11 51°13.157 2°50.926 4.6 256 14 101280 61
2009-04-06 09:30:16 51°13.157 2°50.926 4.9 304 14 101280 61
2009-04-06 09:30:21 51°13.157 2°50.926 4.2 255 14 101280 61
2009-04-06 09:30:26 51°13.157 2°50.926 4.6 305 14 101280 61
2009-04-06 09:30:31 51°13.157 2°50.926 4.2 256 14 101280 61
2009-04-06 09:30:35 51°13.157 2°50.926 4.8 304 14 101280 61
2009-04-06 09:30:41 51°13.157 2°50.926 5.1 257 14 101280 61
2009-04-06 09:30:46 51°13.157 2°50.926 5.1 305 14 101280 61
2009-04-06 09:30:51 51°13.157 2°50.926 4 257 14 101280 62
2009-04-06 09:30:56 51°13.157 2°50.926 5.1 284 14 101280 62
2009-04-06 09:31:01 51°13.157 2°50.926 4 252 14 101280 62
2009-04-06 09:31:06 51°13.157 2°50.926 4.8 302 14 101280 62
2009-04-06 09:31:11 51°13.157 2°50.926 6.2 255 14 101280 62
2009-04-06 09:31:15 51°13.157 2°50.926 5.6 301 14 101280 62
2009-04-06 09:31:21 51°13.157 2°50.926 5.2 251 14 101280 62
2009-04-06 09:31:26 51°13.157 2°50.926 6.5 302 14 101280 62
2009-04-06 09:31:31 51°13.157 2°50.926 5.7 254 14 101280 62
2009-04-06 09:31:36 51°13.157 2°50.926 7 306 14 101280 62
2009-04-06 09:31:41 51°13.157 2°50.926 6.8 254 14 101280 62
2009-04-06 09:31:46 51°13.157 2°50.926 7.1 305 14 101280 62
2009-04-06 09:31:51 51°13.157 2°50.926 7 255 14 101280 62
2009-04-06 09:31:55 51°13.157 2°50.925 5.3 302 14 101280 62
2009-04-06 09:32:01 51°13.158 2°50.925 5.5 254 14 101280 62
2009-04-06 09:32:06 51°13.158 2°50.925 4.9 307 14 101280 62
2009-04-06 09:32:11 51°13.157 2°50.925 5 255 14 101280 62
2009-04-06 09:32:16 51°13.157 2°50.925 6.7 303 14 101280 62
2009-04-06 09:32:21 51°13.157 2°50.926 6.6 256 14 101280 62
2009-04-06 09:32:26 51°13.157 2°50.926 5.1 306 14 101280 62
2009-04-06 09:32:31 51°13.157 2°50.926 5 258 13.9 101280 61
2009-04-06 09:32:36 51°13.157 2°50.926 5.2 304 13.9 101280 61
2009-04-06 09:32:41 51°13.157 2°50.926 5.5 254 14 101280 61
2009-04-06 09:32:46 51°13.157 2°50.926 6.6 306 14 101280 61
2009-04-06 09:32:51 51°13.157 2°50.926 5.6 250 14 101280 61
2009-04-06 09:32:56 51°13.157 2°50.926 5.7 284 14 101280 61
2009-04-06 09:33:01 51°13.157 2°50.927 7.1 251 13.9 101280 61
2009-04-06 09:33:06 51°13.157 2°50.926 5.3 302 13.9 101280 61
2009-04-06 09:33:11 51°13.157 2°50.926 4.4 251 14 101280 61
2009-04-06 09:33:16 51°13.157 2°50.926 5.1 302 14 101280 61
2009-04-06 09:33:21 51°13.157 2°50.926 5.8 251 14 101280 61
2009-04-06 09:33:27 51°13.157 2°50.926 5.7 303 14 101280 61
2009-04-06 09:33:31 51°13.157 2°50.926 4.6 252 14 101270 61
2009-04-06 09:33:36 51°13.157 2°50.925 6.2 307 14 101270 61
2009-04-06 09:33:41 51°13.157 2°50.926 5.2 251 14 101280 61
2009-04-06 09:33:47 51°13.157 2°50.926 4.8 309 14 101280 61
2009-04-06 09:33:51 51°13.157 2°50.926 6 255 14 101280 61
2009-04-06 09:33:56 51°13.157 2°50.926 5.8 304 14 101280 61
2009-04-06 09:34:01 51°13.157 2°50.926 5.1 256 14 101280 61
2009-04-06 09:34:06 51°13.157 2°50.926 5.1 303 14 101280 61
2009-04-06 09:34:11 51°13.157 2°50.926 5.7 258 14 101280 61
2009-04-06 09:34:16 51°13.156 2°50.926 4.9 309 14 101280 61
2009-04-06 09:34:21 51°13.156 2°50.926 6 257 14 101280 61
2009-04-06 09:34:26 51°13.156 2°50.926 5.9 304 14 101280 61
2009-04-06 09:34:31 51°13.156 2°50.926 4.9 256 14 101280 61
2009-04-06 09:34:36 51°13.156 2°50.926 5.2 304 14 101280 61
2009-04-06 09:34:41 51°13.156 2°50.926 5.2 253 14 101270 61
2009-04-06 09:34:46 51°13.156 2°50.926 4.5 304 14 101270 61
2009-04-06 09:34:51 51°13.155 2°50.926 5.3 252 14 101280 61
2009-04-06 09:34:56 51°13.155 2°50.926 5.5 279 14 101280 61
2009-04-06 09:35:01 51°13.155 2°50.926 6.2 256 14.1 101280 61
2009-04-06 09:35:06 51°13.155 2°50.927 5.3 303 14.1 101280 61
2009-04-06 09:35:11 51°13.155 2°50.927 5.5 254 14.1 101280 61
2009-04-06 09:35:16 51°13.155 2°50.927 4.3 303 14.1 101280 61
2009-04-06 09:35:21 51°13.155 2°50.927 5.5 254 14 101270 61
2009-04-06 09:35:27 51°13.155 2°50.927 5.6 303 14 101270 61
2009-04-06 09:35:31 51°13.155 2°50.927 4.5 256 14 101280 61
2009-04-06 09:35:36 51°13.155 2°50.927 4.8 304 14 101280 61
2009-04-06 09:35:41 51°13.155 2°50.927 4 259 14.1 101270 61
2009-04-06 09:35:47 51°13.155 2°50.927 5 303 14.1 101270 61
2009-04-06 09:35:51 51°13.155 2°50.927 4.5 257 14.1 101280 61
2009-04-06 09:35:56 51°13.155 2°50.927 4.5 302 14.1 101280 61
2009-04-06 09:36:01 51°13.155 2°50.927 6.1 256 14.1 101280 61
2009-04-06 09:36:06 51°13.155 2°50.927 5 302 14.1 101280 61
2009-04-06 09:36:11 51°13.155 2°50.927 5.1 260 14.1 101280 61
2009-04-06 09:36:16 51°13.155 2°50.927 5.8 305 14.1 101280 61
2009-04-06 09:36:21 51°13.155 2°50.927 6.3 256 14.1 101280 61
2009-04-06 09:36:26 51°13.155 2°50.927 5.6 310 14.1 101280 61
2009-04-06 09:36:31 51°13.155 2°50.927 4.9 255 14.1 101280 61
2009-04-06 09:36:36 51°13.155 2°50.927 4.8 304 14.1 101280 61
2009-04-06 09:36:41 51°13.155 2°50.927 5.7 259 14.1 101280 60
2009-04-06 09:36:46 51°13.155 2°50.927 4.5 308 14.1 101280 60
2009-04-06 09:36:51 51°13.155 2°50.927 5 256 14.1 101280 60
2009-04-06 09:36:55 51°13.155 2°50.927 5.3 286 14.1 101280 60
2009-04-06 09:37:01 51°13.155 2°50.927 4.9 256 14.1 101280 60
2009-04-06 09:37:06 51°13.155 2°50.927 6 304 14.1 101280 60
2009-04-06 09:37:11 51°13.155 2°50.927 5.4 253 14.1 101270 60
2009-04-06 09:37:16 51°13.155 2°50.927 5 310 14.1 101270 60
2009-04-06 09:37:21 51°13.155 2°50.927 4.5 254 14 101270 60
2009-04-06 09:37:26 51°13.155 2°50.927 5.5 303 14 101270 60
2009-04-06 09:37:31 51°13.155 2°50.927 5.4 251 14 101270 60
2009-04-06 09:37:35 51°13.155 2°50.927 4 306 14 101270 60
2009-04-06 09:37:41 51°13.155 2°50.927 5.1 253 14 101270 60
2009-04-06 09:37:46 51°13.155 2°50.927 4.3 303 14 101270 60
2009-04-06 09:37:51 51°13.155 2°50.927 5.6 250 14 101270 60
2009-04-06 09:37:56 51°13.155 2°50.927 5.9 279 14 101270 60
2009-04-06 09:38:01 51°13.155 2°50.927 5 253 14 101270 60
2009-04-06 09:38:06 51°13.155 2°50.927 5.1 309 14 101270 60
2009-04-06 09:38:11 51°13.155 2°50.927 5 257 14 101270 60
2009-04-06 09:38:16 51°13.155 2°50.927 5.1 304 14 101270 60
2009-04-06 09:38:21 51°13.155 2°50.927 5.6 260 14 101270 60
2009-04-06 09:38:26 51°13.155 2°50.927 4.2 302 14 101270 60
2009-04-06 09:38:31 51°13.155 2°50.927 6.9 257 14 101270 60
2009-04-06 09:38:36 51°13.155 2°50.927 6.3 304 14 101270 60
2009-04-06 09:38:41 51°13.155 2°50.927 5.9 256 14 101270 60
2009-04-06 09:38:46 51°13.155 2°50.927 5.2 310 14 101270 60
2009-04-06 09:38:51 51°13.155 2°50.927 5.4 257 14 101270 60
2009-04-06 09:38:56 51°13.155 2°50.927 5.8 285 14 101270 60
2009-04-06 09:39:01 51°13.155 2°50.927 6.1 253 14 101270 59
2009-04-06 09:39:06 51°13.155 2°50.927 6.3 304 14 101270 59
2009-04-06 09:39:11 51°13.155 2°50.927 5.3 253 14 101270 59
2009-04-06 09:39:16 51°13.155 2°50.927 6.9 308 14 101270 59
2009-04-06 09:39:21 51°13.155 2°50.927 6.2 251 14 101270 59
2009-04-06 09:39:26 51°13.155 2°50.927 7.3 307 14 101270 59
2009-04-06 09:39:31 51°13.155 2°50.927 6.9 250 14 101270 59
2009-04-06 09:39:36 51°13.155 2°50.927 5.6 302 14 101270 59
2009-04-06 09:39:41 51°13.155 2°50.927 6.5 248 14.1 101270 59
2009-04-06 09:39:46 51°13.155 2°50.927 6.6 307 14.1 101270 59
2009-04-06 09:39:51 51°13.155 2°50.927 5.6 250 14.1 101270 58
2009-04-06 09:39:56 51°13.155 2°50.927 6 302 14.1 101270 58
2009-04-06 09:40:01 51°13.155 2°50.927 5.8 254 14.1 101270 58
2009-04-06 09:40:06 51°13.155 2°50.927 6.6 304 14.1 101270 58
2009-04-06 09:40:11 51°13.155 2°50.927 7 253 14.1 101270 58
2009-04-06 09:40:16 51°13.155 2°50.927 7.1 304 14.1 101270 58
2009-04-06 09:40:21 51°13.155 2°50.927 7.4 254 14.1 101270 58
2009-04-06 09:40:26 51°13.155 2°50.927 7.1 304 14.1 101270 58
2009-04-06 09:40:31 51°13.155 2°50.927 6.3 253 14.1 101270 58
2009-04-06 09:40:36 51°13.155 2°50.927 7.2 309 14.1 101270 58
2009-04-06 09:40:41 51°13.155 2°50.927 6.7 252 14.1 101270 58
2009-04-06 09:40:46 51°13.155 2°50.927 6.9 303 14.1 101270 58
2009-04-06 09:40:51 51°13.155 2°50.927 6.5 255 14.1 101270 58
2009-04-06 09:40:56 51°13.155 2°50.927 6.9 279 14.1 101270 58
2009-04-06 09:41:01 51°13.155 2°50.927 6.5 251 14.1 101270 58
2009-04-06 09:41:06 51°13.155 2°50.927 5.9 303 14.1 101270 58
2009-04-06 09:41:11 51°13.155 2°50.927 6.7 252 14.1 101270 58
2009-04-06 09:41:16 51°13.155 2°50.927 5.4 301 14.1 101270 58
2009-04-06 09:41:21 51°13.155 2°50.927 5.4 253 14.1 101270 58
2009-04-06 09:41:26 51°13.155 2°50.927 6.7 302 14.1 101270 58
2009-04-06 09:41:31 51°13.155 2°50.927 6.7 255 14.1 101270 59
2009-04-06 09:41:36 51°13.155 2°50.927 6.7 310 14.1 101270 59
2009-04-06 09:41:41 51°13.155 2°50.927 5.5 250 14.1 101270 59
2009-04-06 09:41:47 51°13.155 2°50.927 6.7 304 14.1 101270 59
2009-04-06 09:41:51 51°13.155 2°50.927 6.4 251 14.1 101270 58
2009-04-06 09:41:56 51°13.155 2°50.927 6.5 281 14.1 101270 58
2009-04-06 09:42:01 51°13.155 2°50.927 6.4 251 14.1 101260 59
2009-04-06 09:42:06 51°13.156 2°50.926 5.7 305 14.1 101260 59
2009-04-06 09:42:11 51°13.155 2°50.926 5.8 249 14.1 101260 58
2009-04-06 09:42:15 51°13.156 2°50.926 5.7 307 14.1 101260 58
2009-04-06 09:42:21 51°13.156 2°50.926 6.6 249 14.1 101260 58
2009-04-06 09:42:26 51°13.156 2°50.926 6.6 305 14.1 101260 58
2009-04-06 09:42:31 51°13.156 2°50.926 5.3 251 14.1 101270 58
2009-04-06 09:42:36 51°13.156 2°50.926 6.4 303 14.1 101270 58
2009-04-06 09:42:41 51°13.156 2°50.926 6.3 251 14.2 101270 59
2009-04-06 09:42:46 51°13.156 2°50.926 5.5 303 14.2 101270 59
2009-04-06 09:42:51 51°13.156 2°50.926 6.7 251 14.1 101260 59
2009-04-06 09:42:55 51°13.156 2°50.926 6.1 279 14.1 101260 59
2009-04-06 09:43:01 51°13.156 2°50.926 6.4 255 14.2 101260 58
2009-04-06 09:43:06 51°13.156 2°50.926 6.2 304 14.2 101260 58
2009-04-06 09:43:11 51°13.156 2°50.926 5.9 255 14.2 101260 59
2009-04-06 09:43:16 51°13.156 2°50.926 5.6 310 14.2 101260 59
2009-04-06 09:43:21 51°13.156 2°50.926 5.4 253 14.2 101260 59
2009-04-06 09:43:26 51°13.157 2°50.926 5.5 302 14.2 101260 59
2009-04-06 09:43:31 51°13.156 2°50.926 4.9 254 14.2 101260 59
2009-04-06 09:43:35 51°13.156 2°50.926 6.4 308 14.2 101260 59
2009-04-06 09:43:41 51°13.156 2°50.926 6.4 256 14.2 101260 59
2009-04-06 09:43:46 51°13.156 2°50.926 6 308 14.2 101260 59
2009-04-06 09:43:51 51°13.156 2°50.926 4.7 256 14.2 101260 59
2009-04-06 09:43:56 51°13.156 2°50.926 5.8 286 14.2 101260 59
2009-04-06 09:44:01 51°13.156 2°50.926 6 256 14.2 101270 59
2009-04-06 09:44:06 51°13.156 2°50.926 5.1 304 14.2 101270 59
2009-04-06 09:44:11 51°13.156 2°50.926 6.3 256 14.2 101270 59
2009-04-06 09:44:16 51°13.156 2°50.926 4.8 304 14.2 101270 59
2009-04-06 09:44:21 51°13.156 2°50.926 4.8 251 14.2 101260 59
2009-04-06 09:44:26 51°13.156 2°50.926 4.7 310 14.2 101260 59
2009-04-06 09:44:31 51°13.156 2°50.926 5.8 254 14.2 101260 59
2009-04-06 09:44:36 51°13.156 2°50.926 4.5 302 14.2 101260 59
2009-04-06 09:44:41 51°13.156 2°50.926 4.6 254 14.2 101260 59
2009-04-06 09:44:46 51°13.156 2°50.926 5.1 304 14.2 101260 59
2009-04-06 09:44:51 51°13.156 2°50.927 7.3 257 14.2 101260 59
2009-04-06 09:44:56 51°13.156 2°50.927 7.1 279 14.2 101260 59
2009-04-06 09:45:01 51°13.156 2°50.927 6.7 257 14.2 101260 59
2009-04-06 09:45:07 51°13.156 2°50.927 5.2 308 14.2 101260 59
2009-04-06 09:45:11 51°13.156 2°50.927 5.6 253 14.3 101260 59
2009-04-06 09:45:16 51°13.156 2°50.927 6.1 302 14.3 101260 59
2009-04-06 09:45:21 51°13.156 2°50.927 4.8 252 14.3 101260 59
2009-04-06 09:45:26 51°13.156 2°50.927 5.8 310 14.3 101260 59
2009-04-06 09:45:31 51°13.156 2°50.928 5.8 253 14.3 101260 59
2009-04-06 09:45:36 51°13.155 2°50.928 6.1 302 14.3 101260 59
2009-04-06 09:45:41 51°13.155 2°50.928 5.7 252 14.3 101260 59
2009-04-06 09:45:46 51°13.155 2°50.928 4.9 304 14.3 101260 59
2009-04-06 09:45:51 51°13.155 2°50.928 6 253 14.3 101260 59
2009-04-06 09:45:56 51°13.155 2°50.928 6.2 284 14.3 101260 59
2009-04-06 09:46:01 51°13.155 2°50.928 6 254 14.3 101260 59
2009-04-06 09:46:06 51°13.155 2°50.928 6.4 309 14.3 101260 59
2009-04-06 09:46:11 51°13.155 2°50.928 6.3 250 14.3 101260 59
2009-04-06 09:46:16 51°13.155 2°50.928 4.7 310 14.3 101260 59
2009-04-06 09:46:21 51°13.155 2°50.928 5.2 20 14.3 101260 59
2009-04-06 09:46:26 51°13.155 2°50.928 6.4 305 14.3 101260 59
2009-04-06 09:46:31 51°13.155 2°50.928 4.5 251 14.3 101260 59
2009-04-06 09:46:36 51°13.155 2°50.928 5.9 307 14.3 101260 59
2009-04-06 09:46:41 51°13.155 2°50.928 4.7 253 14.3 101260 59
2009-04-06 09:46:47 51°13.155 2°50.928 6.8 309 14.3 101260 59
2009-04-06 09:46:51 51°13.155 2°50.928 5.5 255 14.4 101260 59
2009-04-06 09:46:56 51°13.155 2°50.928 5.6 284 14.4 101260 59
2009-04-06 09:47:01 51°13.155 2°50.928 5.9 257 14.4 101260 59
2009-04-06 09:47:07 51°13.155 2°50.928 4.6 310 14.4 101260 59
2009-04-06 09:47:11 51°13.155 2°50.928 6.2 257 14.4 101260 59
2009-04-06 09:47:16 51°13.155 2°50.928 5.6 304 14.4 101260 59
2009-04-06 09:47:21 51°13.155 2°50.928 5.3 260 14.4 101260 59
2009-04-06 09:47:26 51°13.155 2°50.929 3.9 304 14.4 101260 59
2009-04-06 09:47:31 51°13.155 2°50.928 4.1 260 14.4 101260 60
2009-04-06 09:47:36 51°13.155 2°50.929 4.5 304 14.4 101260 60
2009-04-06 09:47:41 51°13.155 2°50.929 4.9 259 14.4 101260 60
2009-04-06 09:47:46 51°13.155 2°50.928 5.6 303 14.4 101260 60
2009-04-06 09:47:51 51°13.155 2°50.929 5 260 14.4 101260 60
2009-04-06 09:47:56 51°13.155 2°50.928 5.6 309 14.4 101260 60
2009-04-06 09:48:01 51°13.154 2°50.928 5.6 261 14.4 101260 59
2009-04-06 09:48:06 51°13.154 2°50.928 5.6 303 14.4 101260 59
2009-04-06 09:48:11 51°13.154 2°50.928 5.4 259 14.4 101260 59
2009-04-06 09:48:16 51°13.154 2°50.928 6.4 304 14.4 101260 59
2009-04-06 09:48:21 51°13.154 2°50.928 6.2 254 14.4 101260 60
2009-04-06 09:48:26 51°13.154 2°50.928 5.5 302 14.4 101260 60
2009-04-06 09:48:31 51°13.154 2°50.928 5 254 14.4 101260 60
2009-04-06 09:48:35 51°13.154 2°50.928 4.4 310 14.4 101260 60
2009-04-06 09:48:41 51°13.154 2°50.928 5.7 255 14.4 101260 60
2009-04-06 09:48:46 51°13.154 2°50.928 4.4 305 14.4 101260 60
2009-04-06 09:48:51 51°13.154 2°50.928 4.5 256 14.4 101260 60
2009-04-06 09:48:56 51°13.154 2°50.928 4.9 283 14.4 101260 60
2009-04-06 09:49:01 51°13.154 2°50.928 6.2 257 14.4 101260 60
2009-04-06 09:49:06 51°13.153 2°50.928 5.2 302 14.4 101260 60
2009-04-06 09:49:11 51°13.153 2°50.928 4.7 257 14.4 101260 60
2009-04-06 09:49:15 51°13.153 2°50.928 6.3 304 14.4 101260 60
2009-04-06 09:49:21 51°13.153 2°50.928 4.8 256 14.4 101260 60
2009-04-06 09:49:26 51°13.153 2°50.928 4.6 306 14.4 101260 60
2009-04-06 09:49:31 51°13.153 2°50.928 6.2 257 14.4 101260 60
2009-04-06 09:49:36 51°13.153 2°50.928 6.3 308 14.4 101260 60
2009-04-06 09:49:41 51°13.153 2°50.928 5.8 255 14.4 101260 60
2009-04-06 09:49:46 51°13.153 2°50.928 5.7 303 14.4 101260 60
2009-04-06 09:49:51 51°13.153 2°50.928 4.9 257 14.4 101260 59
2009-04-06 09:49:56 51°13.153 2°50.928 5.1 284 14.4 101260 59
2009-04-06 09:50:01 51°13.153 2°50.928 5.3 259 14.4 101250 59
2009-04-06 09:50:06 51°13.153 2°50.928 6.3 308 14.4 101250 59
2009-04-06 09:50:11 51°13.153 2°50.928 5.9 256 14.5 101260 59
2009-04-06 09:50:16 51°13.153 2°50.928 5.8 302 14.5 101260 59
2009-04-06 09:50:21 51°13.153 2°50.928 4.9 255 14.5 101260 59
2009-04-06 09:50:26 51°13.153 2°50.928 5.4 303 14.5 101260 59
2009-04-06 09:50:31 51°13.153 2°50.928 5 254 14.5 101260 59
2009-04-06 09:50:36 51°13.153 2°50.927 5.4 308 14.5 101260 59
2009-04-06 09:50:41 51°13.152 2°50.928 4.2 256 14.5 101250 59
2009-04-06 09:50:46 51°13.153 2°50.927 5.4 304 14.5 101250 59
2009-04-06 09:50:51 51°13.152 2°50.927 4.4 258 14.5 101260 59
2009-04-06 09:50:56 51°13.152 2°50.927 5.7 283 14.5 101260 59
2009-04-06 09:51:01 51°13.152 2°50.927 5.5 258 14.5 101250 59
2009-04-06 09:51:06 51°13.152 2°50.927 5.4 308 14.5 101250 59
2009-04-06 09:51:11 51°13.152 2°50.927 5.2 255 14.5 101250 59
2009-04-06 09:51:16 51°13.152 2°50.927 5.4 304 14.5 101250 59
2009-04-06 09:51:21 51°13.152 2°50.927 4.4 255 14.5 101250 59
2009-04-06 09:51:27 51°13.152 2°50.927 5.4 309 14.5 101250 59
2009-04-06 09:51:31 51°13.152 2°50.927 5.5 254 14.6 101250 59
2009-04-06 09:51:36 51°13.152 2°50.927 5.8 306 14.6 101250 59
2009-04-06 09:51:41 51°13.152 2°50.928 4.8 252 14.6 101250 59
2009-04-06 09:51:47 51°13.152 2°50.927 5.6 304 14.6 101250 59
2009-04-06 09:51:51 51°13.152 2°50.927 5.5 256 14.6 101250 59
2009-04-06 09:51:56 51°13.152 2°50.927 4.4 302 14.6 101250 59
2009-04-06 09:52:01 51°13.152 2°50.927 5.6 253 14.6 101250 59
2009-04-06 09:52:06 51°13.152 2°50.928 4.5 303 14.6 101250 59
2009-04-06 09:52:11 51°13.152 2°50.927 4.6 254 14.6 101250 59
2009-04-06 09:52:16 51°13.152 2°50.928 4.7 303 14.6 101250 59
2009-04-06 09:52:21 51°13.152 2°50.927 4.1 253 14.6 101250 59
2009-04-06 09:52:26 51°13.152 2°50.928 4.5 304 14.6 101250 59
2009-04-06 09:52:31 51°13.152 2°50.927 5.5 254 14.6 101250 59
2009-04-06 09:52:36 51°13.152 2°50.928 5.2 304 14.6 101250 59
2009-04-06 09:52:41 51°13.152 2°50.928 4.6 253 14.6 101250 59
2009-04-06 09:52:46 51°13.152 2°50.928 4.5 307 14.6 101250 59
2009-04-06 09:52:51 51°13.152 2°50.928 5.3 252 14.6 101250 59
2009-04-06 09:52:56 51°13.152 2°50.928 5.4 279 14.6 101250 59
2009-04-06 09:53:01 51°13.152 2°50.928 5.4 251 14.6 101250 59
2009-04-06 09:53:06 51°13.152 2°50.928 5.3 303 14.6 101250 59
2009-04-06 09:53:11 51°13.152 2°50.928 5.5 251 14.6 101250 59
2009-04-06 09:53:16 51°13.153 2°50.928 4.5 305 14.6 101250 59
2009-04-06 09:53:21 51°13.153 2°50.928 4.3 250 14.6 101250 59
2009-04-06 09:53:27 51°13.153 2°50.928 4.3 308 14.6 101250 59
2009-04-06 09:53:31 51°13.153 2°50.928 4.2 254 14.6 101250 59
2009-04-06 09:53:36 51°13.153 2°50.928 5.4 305 14.6 101250 59
2009-04-06 09:53:41 51°13.153 2°50.927 4.5 255 14.6 101250 58
2009-04-06 09:53:47 51°13.153 2°50.927 5.6 310 14.6 101250 58
2009-04-06 09:53:51 51°13.153 2°50.927 5.4 257 14.7 101250 58
2009-04-06 09:53:56 51°13.153 2°50.927 4.4 309 14.7 101250 58
2009-04-06 09:54:01 51°13.153 2°50.927 5.1 258 14.7 101250 58
2009-04-06 09:54:07 51°13.153 2°50.927 4.2 305 14.7 101250 58
2009-04-06 09:54:11 51°13.153 2°50.927 4.6 259 14.7 101250 58
2009-04-06 09:54:16 51°13.153 2°50.927 4.9 303 14.7 101250 58
2009-04-06 09:54:21 51°13.153 2°50.927 4.8 259 14.7 101250 58
2009-04-06 09:54:26 51°13.153 2°50.927 4.9 301 14.7 101250 58
2009-04-06 09:54:31 51°13.153 2°50.927 4.7 258 14.7 101250 58
2009-04-06 09:54:35 51°13.153 2°50.927 5.7 310 14.7 101250 58
2009-04-06 09:54:41 51°13.153 2°50.927 6 258 14.7 101250 58
2009-04-06 09:54:46 51°13.153 2°50.927 3.6 311 14.7 101250 58
2009-04-06 09:54:51 51°13.153 2°50.927 2.7 264 14.7 101250 58
2009-04-06 09:54:56 51°13.153 2°50.927 6.2 279 14.7 101250 58
2009-04-06 09:55:01 51°13.153 2°50.927 4.4 256 14.7 101250 58
2009-04-06 09:55:06 51°13.153 2°50.927 5.1 308 14.7 101250 58
2009-04-06 09:55:11 51°13.153 2°50.927 6 256 14.7 101250 57
2009-04-06 09:55:15 51°13.153 2°50.927 5.3 305 14.7 101250 57
2009-04-06 09:55:21 51°13.153 2°50.927 6 258 14.7 101240 58
2009-04-06 09:55:26 51°13.153 2°50.927 5.4 310 14.7 101240 58
2009-04-06 09:55:31 51°13.153 2°50.928 4.4 259 14.7 101240 58
2009-04-06 09:55:36 51°13.153 2°50.928 5.3 311 14.7 101240 58
2009-04-06 09:55:41 51°13.153 2°50.928 4.1 261 14.7 101250 58
2009-04-06 09:55:46 51°13.153 2°50.928 3.3 305 14.7 101250 58
2009-04-06 09:55:51 51°13.153 2°50.928 3.7 260 14.7 101240 58
2009-04-06 09:55:55 51°13.153 2°50.928 7 304 14.7 101240 58
2009-04-06 09:56:01 51°13.153 2°50.928 4.6 262 14.7 101250 58
2009-04-06 09:56:06 51°13.153 2°50.928 5.4 306 14.7 101250 58
2009-04-06 09:56:11 51°13.153 2°50.928 5.9 260 14.6 101240 57
2009-04-06 09:56:16 51°13.153 2°50.928 6.7 309 14.6 101240 57
2009-04-06 09:56:21 51°13.153 2°50.928 7.8 256 14.6 101250 57
2009-04-06 09:56:26 51°13.153 2°50.928 7.3 307 14.6 101250 57
2009-04-06 09:56:31 51°13.153 2°50.928 6.2 258 14.6 101240 57
2009-04-06 09:56:36 51°13.153 2°50.928 6.8 303 14.6 101240 57
2009-04-06 09:56:41 51°13.153 2°50.928 6.1 257 14.5 101240 57
2009-04-06 09:56:46 51°13.153 2°50.928 7.8 306 14.5 101240 57
2009-04-06 09:56:51 51°13.152 2°50.928 4.6 262 14.5 101240 57
2009-04-06 09:56:56 51°13.153 2°50.928 7.2 281 14.5 101240 57
2009-04-06 09:57:01 51°13.152 2°50.928 7.8 257 14.5 101240 58
2009-04-06 09:57:06 51°13.152 2°50.928 7.3 303 14.5 101240 58
2009-04-06 09:57:11 51°13.152 2°50.928 7 260 14.5 101240 58
2009-04-06 09:57:16 51°13.152 2°50.928 6.3 301 14.5 101240 58
2009-04-06 09:57:21 51°13.152 2°50.928 5.1 260 14.5 101240 58
2009-04-06 09:57:26 51°13.152 2°50.928 6.5 308 14.5 101240 58
2009-04-06 09:57:31 51°13.152 2°50.928 6.3 256 14.4 101240 58
2009-04-06 09:57:36 51°13.152 2°50.928 6.9 306 14.4 101240 58
2009-04-06 09:57:41 51°13.152 2°50.928 5 260 14.4 101240 58
2009-04-06 09:57:46 51°13.152 2°50.928 5.8 308 14.4 101240 58
2009-04-06 09:57:51 51°13.152 2°50.928 5.7 258 14.4 101240 57
2009-04-06 09:57:56 51°13.152 2°50.928 5.6 309 14.4 101240 57
2009-04-06 09:58:01 51°13.152 2°50.928 5.6 257 14.4 101240 57
2009-04-06 09:58:06 51°13.152 2°50.928 7.2 304 14.4 101240 57
2009-04-06 09:58:11 51°13.152 2°50.928 5.6 260 14.4 101240 57
2009-04-06 09:58:16 51°13.152 2°50.928 7.1 307 14.4 101240 57
2009-04-06 09:58:21 51°13.152 2°50.928 7.9 256 14.4 101240 57
2009-04-06 09:58:27 51°13.152 2°50.928 6.8 308 14.4 101240 57
2009-04-06 09:58:31 51°13.152 2°50.928 6.8 259 14.4 101240 57
2009-04-06 09:58:36 51°13.152 2°50.928 5.4 303 14.4 101240 57
2009-04-06 09:58:41 51°13.152 2°50.928 7.2 258 14.4 101240 57
2009-04-06 09:58:46 51°13.152 2°50.928 7 310 14.4 101240 57
2009-04-06 09:58:51 51°13.151 2°50.928 7.4 253 14.4 101240 57
2009-04-06 09:58:56 51°13.152 2°50.928 6.7 286 14.4 101240 57
2009-04-06 09:59:01 51°13.151 2°50.928 6.5 255 14.4 101240 57
2009-04-06 09:59:06 51°13.151 2°50.928 8.8 306 14.4 101240 57
2009-04-06 09:59:11 51°13.151 2°50.928 8 253 14.4 101240 57
2009-04-06 09:59:16 51°13.151 2°50.928 7.8 302 14.4 101240 57
2009-04-06 09:59:21 51°13.152 2°50.928 7.8 254 14.4 101240 57
2009-04-06 09:59:26 51°13.152 2°50.928 6.2 301 14.4 101240 57
2009-04-06 09:59:31 51°13.151 2°50.928 6.1 257 14.4 101240 57
2009-04-06 09:59:36 51°13.152 2°50.928 7.7 302 14.4 101240 57
2009-04-06 09:59:41 51°13.152 2°50.928 7.4 251 14.4 101240 57
2009-04-06 09:59:46 51°13.152 2°50.928 6.6 302 14.4 101240 57
2009-04-06 09:59:51 51°13.152 2°50.928 7.7 251 14.4 101240 57
2009-04-06 09:59:56 51°13.152 2°50.928 6.7 304 14.4 101240 57
2009-04-06 10:00:01 51°13.152 2°50.928 7.8 19 14.4 101240 57
2009-04-06 10:00:06 51°13.152 2°50.928 8.1 304 14.4 101240 57
2009-04-06 10:00:11 51°13.152 2°50.928 8.2 252 14.5 101250 57
2009-04-06 10:00:16 51°13.152 2°50.928 7.7 307 14.5 101250 57
2009-04-06 10:00:21 51°13.152 2°50.928 7.4 254 14.5 101240 56
2009-04-06 10:00:27 51°13.152 2°50.928 7 309 14.5 101240 56
2009-04-06 10:00:31 51°13.152 2°50.928 6.9 253 14.5 101240 56
2009-04-06 10:00:36 51°13.152 2°50.928 6.5 308 14.5 101240 56
2009-04-06 10:00:41 51°13.152 2°50.928 6.4 255 14.5 101240 56
2009-04-06 10:00:47 51°13.153 2°50.928 6.7 304 14.5 101240 56
2009-04-06 10:00:51 51°13.153 2°50.928 8.2 254 14.5 101240 55
2009-04-06 10:00:56 51°13.153 2°50.928 6.5 284 14.5 101240 55
2009-04-06 10:01:01 51°13.153 2°50.928 7.8 254 14.5 101240 55
2009-04-06 10:01:06 51°13.153 2°50.928 8 303 14.5 101240 55
2009-04-06 10:01:11 51°13.153 2°50.928 6.7 256 14.6 101240 55
2009-04-06 10:01:16 51°13.153 2°50.928 7.8 310 14.6 101240 55
2009-04-06 10:01:21 51°13.154 2°50.928 7.9 256 14.6 101240 55
2009-04-06 10:01:26 51°13.154 2°50.928 6.7 306 14.6 101240 55
2009-04-06 10:01:31 51°13.154 2°50.928 8.2 256 14.6 101240 55
2009-04-06 10:01:36 51°13.153 2°50.928 5.9 302 14.6 101240 55
2009-04-06 10:01:41 51°13.153 2°50.927 8.3 256 14.6 101240 54
2009-04-06 10:01:46 51°13.153 2°50.927 7.5 304 14.6 101240 54